When you browse on this site, cookies collect data to enhance your experience and personalize the content and advertising you see.
Visit our Privacy Policy to learn more. By continuing to use the site, you agree to this use of cookies and data.
  • In Hungary
  • List of Countries
  • For 7 days
  • Water Temperature
  • Satellite Maps
  • Weather Map
  • News
  • Weather Widgets
  • user-avatar
    Login

    Hourly Weather Staunton

    Today, 19 December, Wednesday

    Time Temperature Precipitation Wind Pressure Humidity
    00:00 +1°C° 0 mm 1 mps 724 mmHg 74%
    01:00 +1°C° 0 mm 1 mps 724 mmHg 76%
    02:00 0°C° 0 mm 1 mps 724 mmHg 79%
    03:00 0°C° 0 mm 1 mps 724 mmHg 81%
    04:00 0°C° 0 mm 1 mps 724 mmHg 83%
    05:00 0°C° 0 mm 1 mps 724 mmHg 84%
    06:00 0°C° 0 mm 1 mps 724 mmHg 86%
    07:00 0°C° 0 mm 1 mps 724 mmHg 87%
    08:00 +1°C° 0 mm 2 mps 724 mmHg 81%
    09:00 +3°C° 0 mm 2 mps 724 mmHg 74%
    10:00 +4°C° 0 mm 2 mps 724 mmHg 68%
    11:00 +6°C° 0 mm 2 mps 723 mmHg 64%
    12:00 +7°C° 0 mm 2 mps 723 mmHg 61%
    13:00 +9°C° 0 mm 3 mps 722 mmHg 57%
    14:00 +8°C° 0 mm 2 mps 722 mmHg 62%
    15:00 +8°C° 0 mm 2 mps 722 mmHg 67%
    16:00 +8°C° 0 mm 2 mps 721 mmHg 72%
    17:00 +6°C° 0 mm 2 mps 721 mmHg 78%
    18:00 +5°C° 0 mm 1 mps 721 mmHg 84%
    19:00 +4°C° 0 mm 1 mps 721 mmHg 91%
    20:00 +4°C° 0 mm 1 mps 721 mmHg 91%
    21:00 +3°C° 0 mm 1 mps 721 mmHg 91%
    22:00 +3°C° 0 mm 1 mps 721 mmHg 92%
    23:00 +3°C° 0 mm 1 mps 721 mmHg 92%

    Tomorrow, 20 December, Thursday

    Time Temperature Precipitation Wind Pressure Humidity
    00:00 +3°C° 0 mm 1 mps 721 mmHg 92%
    01:00 +3°C° 0 mm 1 mps 721 mmHg 92%
    02:00 +3°C° 0 mm 1 mps 721 mmHg 92%
    03:00 +3°C° 0 mm 1 mps 720 mmHg 92%
    04:00 +3°C° 0 mm 1 mps 720 mmHg 92%
    05:00 +3°C° 0 mm 1 mps 720 mmHg 93%
    06:00 +4°C° 0 mm 1 mps 720 mmHg 94%
    07:00 +4°C° 0 mm 1 mps 720 mmHg 95%
    08:00 +5°C° 0.1 mm 1 mps 720 mmHg 95%
    09:00 +6°C° 0.1 mm 1 mps 720 mmHg 95%
    10:00 +7°C° 0.1 mm 1 mps 720 mmHg 96%
    11:00 +7°C° 0.1 mm 1 mps 719 mmHg 96%
    12:00 +8°C° 0.1 mm 1 mps 718 mmHg 96%
    13:00 +8°C° 0.1 mm 1 mps 717 mmHg 96%
    14:00 +8°C° 1.2 mm 1 mps 716 mmHg 96%
    15:00 +8°C° 1.2 mm 1 mps 715 mmHg 97%
    16:00 +7°C° 1.2 mm 2 mps 713 mmHg 98%
    17:00 +7°C° 3.8 mm 2 mps 713 mmHg 98%
    18:00 +7°C° 3.8 mm 2 mps 712 mmHg 98%
    19:00 +7°C° 3.8 mm 2 mps 711 mmHg 98%
    20:00 +7°C° 2.8 mm 2 mps 710 mmHg 98%
    21:00 +7°C° 2.8 mm 2 mps 709 mmHg 97%
    22:00 +7°C° 2.8 mm 2 mps 708 mmHg 97%
    23:00 +8°C° 0.9 mm 1 mps 707 mmHg 97%

    Day after tomorrow, 21 December, Friday

    Time Temperature Precipitation Wind Pressure Humidity
    00:00 +9°C° 0.9 mm 1 mps 706 mmHg 97%
    01:00 +9°C° 0.9 mm 1 mps 705 mmHg 97%
    02:00 +9°C° 0.5 mm 1 mps 704 mmHg 98%
    03:00 +9°C° 0.5 mm 1 mps 704 mmHg 98%
    04:00 +8°C° 0.5 mm 0 mps 703 mmHg 98%
    05:00 +10°C° 1.6 mm 1 mps 703 mmHg 98%
    06:00 +10°C° 1.6 mm 1 mps 703 mmHg 98%
    07:00 +11°C° 1.6 mm 1 mps 703 mmHg 98%
    08:00 +10°C° 0 mm 2 mps 703 mmHg 96%
    09:00 +12°C° 0 mm 2 mps 702 mmHg 95%
    10:00 +12°C° 0 mm 2 mps 702 mmHg 94%
    11:00 +11°C° 0.2 mm 3 mps 702 mmHg 90%
    12:00 +11°C° 0.2 mm 4 mps 701 mmHg 87%
    13:00 +10°C° 0.2 mm 5 mps 701 mmHg 83%
    14:00 +9°C° 0.2 mm 5 mps 701 mmHg 83%
    15:00 +8°C° 0.2 mm 5 mps 701 mmHg 82%
    16:00 +7°C° 0.2 mm 5 mps 701 mmHg 81%
    17:00 +6°C° 0 mm 4 mps 701 mmHg 84%
    18:00 +4°C° 0 mm 3 mps 701 mmHg 87%
    19:00 +4°C° 0 mm 2 mps 701 mmHg 90%
    20:00 +4°C° 0.4 mm 3 mps 702 mmHg 89%
    21:00 +4°C° 0.4 mm 4 mps 702 mmHg 88%
    22:00 +3°C° 0.4 mm 5 mps 702 mmHg 87%
    23:00 +3°C° 0.1 mm 5 mps 703 mmHg 85%

    22 December, Saturday

    Time Temperature Precipitation Wind Pressure Humidity
    00:00 +2°C° 0.1 mm 5 mps 704 mmHg 82%
    01:00 +2°C° 0.1 mm 5 mps 704 mmHg 79%
    02:00 +2°C° 0 mm 5 mps 705 mmHg 79%
    03:00 +2°C° 0 mm 5 mps 707 mmHg 78%
    04:00 +2°C° 0 mm 5 mps 708 mmHg 77%
    05:00 +1°C° 0 mm 5 mps 709 mmHg 77%
    06:00 +1°C° 0 mm 5 mps 710 mmHg 77%
    07:00 0°C° 0 mm 5 mps 711 mmHg 76%
    08:00 +1°C° 0 mm 6 mps 712 mmHg 72%
    09:00 +2°C° 0 mm 6 mps 713 mmHg 68%
    10:00 +2°C° 0 mm 7 mps 714 mmHg 64%
    11:00 +2°C° 0 mm 7 mps 714 mmHg 62%
    12:00 +3°C° 0 mm 6 mps 714 mmHg 60%
    13:00 +3°C° 0 mm 6 mps 715 mmHg 58%
    14:00 +2°C° 0 mm 5 mps 715 mmHg 60%
    15:00 +2°C° 0 mm 5 mps 716 mmHg 62%
    16:00 +3°C° 0 mm 4 mps 716 mmHg 64%
    17:00 +1°C° 0 mm 4 mps 717 mmHg 69%
    18:00 0°C° 0 mm 3 mps 717 mmHg 75%
    19:00 -1°C° 0 mm 2 mps 718 mmHg 80%
    20:00 -1°C° 0 mm 2 mps 718 mmHg 80%
    21:00 -1°C° 0 mm 2 mps 719 mmHg 81%
    22:00 -2°C° 0 mm 2 mps 719 mmHg 81%
    23:00 -2°C° 0 mm 2 mps 719 mmHg 79%

    23 December, Sunday

    Time Temperature Precipitation Wind Pressure Humidity
    00:00 -2°C° 0 mm 2 mps 719 mmHg 78%
    01:00 -2°C° 0 mm 2 mps 719 mmHg 76%
    02:00 -1°C° 0 mm 2 mps 719 mmHg 77%
    03:00 -1°C° 0 mm 2 mps 719 mmHg 77%
    04:00 -1°C° 0 mm 2 mps 719 mmHg 78%
    05:00 -1°C° 0 mm 2 mps 719 mmHg 80%
    06:00 -1°C° 0 mm 2 mps 720 mmHg 81%
    07:00 +1°C° 0 mm 2 mps 720 mmHg 82%
    08:00 +1°C° 0 mm 3 mps 721 mmHg 76%
    09:00 +3°C° 0 mm 3 mps 722 mmHg 70%
    10:00 +4°C° 0 mm 4 mps 722 mmHg 64%
    11:00 +5°C° 0 mm 4 mps 722 mmHg 61%
    12:00 +5°C° 0 mm 4 mps 722 mmHg 59%
    13:00 +7°C° 0 mm 3 mps 722 mmHg 56%
    14:00 +5°C° 0 mm 3 mps 722 mmHg 59%
    15:00 +6°C° 0 mm 2 mps 722 mmHg 61%
    16:00 +5°C° 0 mm 2 mps 722 mmHg 64%
    17:00 +4°C° 0 mm 2 mps 723 mmHg 70%
    18:00 +2°C° 0 mm 2 mps 723 mmHg 76%
    19:00 +1°C° 0 mm 1 mps 723 mmHg 82%
    20:00 +1°C° 0 mm 1 mps 723 mmHg 82%
    21:00 0°C° 0 mm 1 mps 723 mmHg 83%
    22:00 0°C° 0 mm 1 mps 723 mmHg 83%
    23:00 0°C° 0 mm 1 mps 723 mmHg 82%

    24 December, Monday

    Time Temperature Precipitation Wind Pressure Humidity
    00:00 0°C° 0 mm 1 mps 723 mmHg 81%
    01:00 0°C° 0 mm 1 mps 723 mmHg 80%
    02:00 -2°C° 0 mm 2 mps 723 mmHg 80%
    03:00 -3°C° 0 mm 2 mps 723 mmHg 80%
    04:00 -3°C° 0 mm 2 mps 723 mmHg 79%
    05:00 -3°C° 0 mm 2 mps 724 mmHg 77%
    06:00 -3°C° 0 mm 2 mps 724 mmHg 75%
    07:00 -4°C° 0 mm 3 mps 724 mmHg 74%
    08:00 -3°C° 0 mm 4 mps 725 mmHg 64%
    09:00 -2°C° 0 mm 5 mps 726 mmHg 55%
    10:00 -2°C° 0 mm 6 mps 726 mmHg 46%
    11:00 0°C° 0 mm 5 mps 726 mmHg 43%
    12:00 +1°C° 0 mm 5 mps 726 mmHg 40%
    13:00 +2°C° 0 mm 5 mps 726 mmHg 37%
    14:00 +3°C° 0 mm 4 mps 726 mmHg 40%
    15:00 +2°C° 0 mm 3 mps 726 mmHg 44%
    16:00 +2°C° 0 mm 3 mps 726 mmHg 47%
    17:00 +2°C° 0 mm 2 mps 727 mmHg 54%
    18:00 +1°C° 0 mm 1 mps 727 mmHg 60%
    19:00 -1°C° 0 mm 1 mps 727 mmHg 67%
    20:00 -1°C° 0 mm 1 mps 728 mmHg 69%
    21:00 -1°C° 0 mm 1 mps 728 mmHg 71%
    22:00 -2°C° 0 mm 1 mps 728 mmHg 73%
    23:00 -2°C° 0 mm 1 mps 728 mmHg 74%
    Show more